| time (UTC) | temp F | wind direction | speed MPH | gust MPH | rain 1hr in | rain 24hr in | rain mn in | humidity % | barometer mb |
| 20260505011252 | 56 | 170 | 0.0 | 0.0 | 0.01 | 0.06 | 0.02 | 94 | 1009.5 |
| 20260505010439 | 56 | 170 | 0.0 | 0.0 | 0.01 | 0.06 | 0.02 | 94 | 1009.4 |
| 20260505010027 | 56 | 170 | 0.0 | 0.0 | 0.01 | 0.06 | 0.02 | 94 | 1009.5 |
| 20260505005829 | 57 | 170 | 0.0 | 0.0 | 0.00 | 0.05 | 0.01 | 94 | 1009.5 |
| 20260505005108 | 57 | 170 | 0.0 | 0.0 | 0.00 | 0.05 | 0.01 | 94 | 1009.5 |
| 20260505004559 | 56 | 170 | 0.0 | 0.0 | 0.00 | 0.05 | 0.01 | 94 | 1009.6 |
| 20260505004051 | 57 | 170 | 0.0 | 0.0 | 0.00 | 0.05 | 0.01 | 94 | 1009.6 |
| 20260505003541 | 57 | 170 | 0.0 | 0.0 | 0.00 | 0.05 | 0.01 | 94 | 1009.7 |
| 20260505003034 | 57 | 170 | 0.0 | 0.0 | 0.00 | 0.05 | 0.01 | 94 | 1009.7 |
| 20260505002524 | 57 | 170 | 0.0 | 0.0 | 0.00 | 0.05 | 0.01 | 94 | 1009.8 |
| 20260505002015 | 57 | 170 | 0.0 | 0.0 | 0.00 | 0.05 | 0.01 | 94 | 1009.8 |
| 20260505001602 | 57 | 170 | 0.0 | 0.0 | 0.00 | 0.05 | 0.01 | 94 | 1009.9 |
| 20260505001052 | 57 | 170 | 0.0 | 0.0 | 0.00 | 0.05 | 0.01 | 94 | 1009.9 |
| 20260505000549 | 57 | 170 | 0.0 | 0.0 | 0.00 | 0.05 | 0.01 | 94 | 1010.0 |
| 20260505000241 | 57 | 170 | 0.0 | 0.0 | 0.00 | 0.05 | 0.01 | 93 | 1010.0 |
| 20260505000138 | 57 | 170 | 0.0 | 0.0 | 0.00 | 0.05 | 0.01 | 94 | 1010.0 |
| 20260504235021 | 57 | 170 | 0.0 | 0.0 | 0.00 | 0.05 | 0.01 | 93 | 1009.9 |
| 20260504234611 | 57 | 170 | 0.0 | 0.0 | 0.00 | 0.05 | 0.01 | 94 | 1010.0 |
| 20260504234058 | 57 | 170 | 0.0 | 0.0 | 0.00 | 0.05 | 0.01 | 94 | 1010.0 |
| 20260504233551 | 57 | 170 | 0.0 | 0.0 | 0.00 | 0.05 | 0.01 | 93 | 1010.0 |
| 20260504233039 | 57 | 170 | 0.0 | 0.0 | 0.01 | 0.05 | 0.01 | 93 | 1010.1 |
| 20260504232536 | 57 | 170 | 0.0 | 0.0 | 0.01 | 0.05 | 0.01 | 93 | 1010.2 |
| 20260504232027 | 57 | 170 | 0.0 | 0.0 | 0.01 | 0.05 | 0.01 | 93 | 1010.2 |
| 20260504231827 | 57 | 170 | 0.0 | 0.0 | 0.01 | 0.05 | 0.01 | 93 | 1010.3 |
| 20260504231106 | 57 | 170 | 0.0 | 0.0 | 0.01 | 0.06 | 0.01 | 93 | 1010.3 |
| 20260504230605 | 57 | 170 | 0.0 | 0.0 | 0.01 | 0.06 | 0.01 | 93 | 1010.4 |
| 20260504230600 | 57 | 170 | 0.0 | 0.0 | 0.01 | 0.06 | 0.01 | 93 | 1010.3 |
| 20260504230058 | 57 | 170 | 0.0 | 0.0 | 0.01 | 0.06 | 0.01 | 93 | 1010.4 |
| 20260504225026 | 57 | 170 | 0.0 | 0.0 | 0.01 | 0.06 | 0.01 | 93 | 1010.4 |
| 20260504224520 | 57 | 170 | 0.0 | 0.0 | 0.01 | 0.06 | 0.01 | 93 | 1010.5 |
| 20260504224118 | 57 | 170 | 0.0 | 0.0 | 0.02 | 0.06 | 0.01 | 92 | 1010.6 |
| 20260504224014 | 57 | 170 | 0.0 | 0.0 | 0.02 | 0.06 | 0.01 | 93 | 1010.5 |
| 20260504223151 | 57 | 170 | 0.0 | 0.0 | 0.02 | 0.05 | 0.00 | 92 | 1010.6 |
| 20260504223147 | 57 | 170 | 0.0 | 0.0 | 0.01 | 0.05 | 0.00 | 92 | 1010.6 |
| 20260504223044 | 57 | 170 | 0.0 | 0.0 | 0.01 | 0.05 | 0.00 | 92 | 1010.6 |
| 20260504221521 | 57 | 170 | 0.0 | 0.0 | 0.02 | 0.05 | 0.00 | 92 | 1010.7 |
| 20260504221012 | 57 | 170 | 0.0 | 0.0 | 0.02 | 0.05 | 0.00 | 92 | 1010.7 |
| 20260504220506 | 57 | 170 | 0.0 | 0.0 | 0.02 | 0.05 | 0.00 | 92 | 1010.7 |
| 20260504220111 | 57 | 170 | 0.0 | 0.0 | 0.02 | 0.05 | 0.05 | 92 | 1010.9 |
| 20260504215554 | 57 | 170 | 0.0 | 0.0 | 0.02 | 0.05 | 0.05 | 92 | 1010.9 |
| 20260504215549 | 57 | 170 | 0.0 | 0.0 | 0.02 | 0.05 | 0.05 | 92 | 1010.9 |
| 20260504214539 | 57 | 170 | 0.0 | 0.0 | 0.02 | 0.05 | 0.05 | 91 | 1010.9 |
| 20260504214034 | 57 | 170 | 0.0 | 0.0 | 0.02 | 0.04 | 0.04 | 91 | 1011.0 |
| 20260504213522 | 57 | 170 | 0.0 | 0.0 | 0.02 | 0.04 | 0.04 | 91 | 1011.0 |
| 20260504213024 | 57 | 170 | 0.0 | 0.0 | 0.02 | 0.04 | 0.04 | 90 | 1011.1 |
| 20260504213017 | 57 | 170 | 0.0 | 0.0 | 0.02 | 0.04 | 0.04 | 91 | 1011.1 |
| 20260504212712 | 57 | 170 | 0.0 | 0.0 | 0.01 | 0.03 | 0.03 | 90 | 1011.1 |
| 20260504212003 | 57 | 170 | 0.0 | 0.0 | 0.01 | 0.03 | 0.03 | 90 | 1011.1 |
| 20260504210947 | 57 | 170 | 0.0 | 0.0 | 0.01 | 0.03 | 0.03 | 90 | 1011.1 |
| 20260504210551 | 57 | 170 | 0.0 | 0.0 | 0.01 | 0.03 | 0.03 | 90 | 1011.1 |
| 20260504210032 | 57 | 170 | 0.0 | 0.0 | 0.00 | 0.02 | 0.03 | 90 | 1011.2 |
| 20260504205527 | 58 | 170 | 0.0 | 0.0 | 0.00 | 0.02 | 0.02 | 90 | 1011.2 |
| 20260504205021 | 58 | 170 | 0.0 | 0.0 | 0.00 | 0.02 | 0.02 | 90 | 1011.3 |
| 20260504204518 | 58 | 170 | 0.0 | 1.0 | 0.01 | 0.02 | 0.02 | 89 | 1011.3 |
| 20260504204513 | 58 | 170 | 0.0 | 0.0 | 0.00 | 0.02 | 0.02 | 90 | 1011.3 |
| 20260504203501 | 58 | 170 | 0.0 | 1.0 | 0.01 | 0.02 | 0.02 | 89 | 1011.3 |
| 20260504202952 | 58 | 170 | 1.0 | 3.0 | 0.01 | 0.02 | 0.02 | 89 | 1011.3 |
| 20260504202443 | 58 | 170 | 1.0 | 3.0 | 0.01 | 0.02 | 0.02 | 89 | 1011.3 |
| 20260504201935 | 58 | 185 | 0.0 | 3.0 | 0.01 | 0.02 | 0.02 | 89 | 1011.3 |
| 20260504201430 | 58 | 181 | 0.0 | 3.0 | 0.01 | 0.02 | 0.02 | 89 | 1011.2 |
| 20260504201021 | 58 | 162 | 0.0 | 3.0 | 0.01 | 0.02 | 0.02 | 89 | 1011.2 |
| 20260504200511 | 58 | 165 | 0.0 | 3.0 | 0.01 | 0.02 | 0.02 | 89 | 1011.1 |
| 20260504200004 | 58 | 156 | 0.0 | 2.0 | 0.01 | 0.03 | 0.02 | 89 | 1011.0 |
| 20260504195503 | 58 | 183 | 0.0 | 0.0 | 0.01 | 0.03 | 0.02 | 90 | 1011.1 |
| 20260504195457 | 58 | 156 | 0.0 | 2.0 | 0.01 | 0.03 | 0.02 | 90 | 1011.1 |
| 20260504194444 | 59 | 158 | 0.0 | 1.0 | 0.01 | 0.03 | 0.02 | 90 | 1011.1 |
| 20260504193944 | 59 | 177 | 2.0 | 5.0 | 0.00 | 0.02 | 0.02 | 89 | 1011.1 |
| 20260504193938 | 59 | 143 | 1.0 | 3.0 | 0.00 | 0.02 | 0.02 | 89 | 1011.0 |
| 20260504192928 | 59 | 143 | 0.0 | 3.0 | 0.00 | 0.02 | 0.02 | 90 | 1011.0 |
| 20260504192923 | 59 | 160 | 1.0 | 5.0 | 0.00 | 0.02 | 0.02 | 90 | 1011.1 |
| 20260504192006 | 59 | 161 | 0.0 | 0.0 | 0.00 | 0.02 | 0.02 | 90 | 1010.9 |
| 20260504191500 | 60 | 171 | 0.0 | 0.0 | 0.00 | 0.02 | 0.02 | 90 | 1010.9 |
| 20260504190951 | 60 | 131 | 0.0 | 0.0 | 0.00 | 0.02 | 0.02 | 89 | 1010.9 |
| 20260504190451 | 60 | 131 | 0.0 | 0.0 | 0.00 | 0.02 | 0.02 | 89 | 1010.9 |
| 20260504190444 | 60 | 131 | 0.0 | 0.0 | 0.00 | 0.02 | 0.02 | 89 | 1010.9 |
| 20260504185938 | 60 | 131 | 0.0 | 0.0 | 0.00 | 0.02 | 0.02 | 89 | 1010.9 |
| 20260504184921 | 60 | 108 | 0.0 | 0.0 | 0.00 | 0.02 | 0.02 | 89 | 1010.9 |
| 20260504184413 | 60 | 89 | 0.0 | 0.0 | 0.00 | 0.02 | 0.02 | 88 | 1010.9 |
| 20260504183907 | 60 | 122 | 0.0 | 0.0 | 0.00 | 0.02 | 0.02 | 88 | 1010.9 |
| 20260504183402 | 60 | 122 | 0.0 | 0.0 | 0.00 | 0.02 | 0.02 | 88 | 1010.8 |
| 20260504182952 | 60 | 133 | 0.0 | 2.0 | 0.00 | 0.02 | 0.02 | 87 | 1010.8 |
| 20260504182444 | 60 | 115 | 0.0 | 2.0 | 0.00 | 0.02 | 0.02 | 87 | 1010.8 |
| 20260504181934 | 60 | 133 | 0.0 | 7.0 | 0.00 | 0.02 | 0.02 | 87 | 1010.7 |
| 20260504181427 | 60 | 139 | 1.0 | 7.0 | 0.00 | 0.02 | 0.02 | 87 | 1010.7 |
| 20260504180915 | 61 | 98 | 3.0 | 7.0 | 0.00 | 0.02 | 0.02 | 86 | 1010.6 |
| 20260504180409 | 61 | 160 | 3.0 | 7.0 | 0.00 | 0.02 | 0.02 | 86 | 1010.6 |
| 20260504175903 | 61 | 139 | 3.0 | 9.0 | 0.00 | 0.02 | 0.02 | 85 | 1010.6 |
| 20260504175354 | 61 | 152 | 4.0 | 9.0 | 0.00 | 0.02 | 0.02 | 84 | 1010.7 |
| 20260504174850 | 62 | 185 | 4.0 | 8.0 | 0.00 | 0.02 | 0.02 | 84 | 1010.6 |
| 20260504174437 | 62 | 183 | 4.0 | 9.0 | 0.00 | 0.02 | 0.02 | 83 | 1010.6 |
| 20260504173927 | 62 | 93 | 4.0 | 9.0 | 0.00 | 0.02 | 0.02 | 83 | 1010.7 |
| 20260504173416 | 63 | 133 | 4.0 | 9.0 | 0.00 | 0.02 | 0.02 | 83 | 1010.6 |
| 20260504172911 | 63 | 134 | 4.0 | 9.0 | 0.00 | 0.02 | 0.02 | 82 | 1010.7 |
| 20260504172404 | 63 | 187 | 4.0 | 10.0 | 0.00 | 0.02 | 0.02 | 81 | 1010.7 |
| 20260504171856 | 63 | 133 | 4.0 | 10.0 | 0.00 | 0.02 | 0.02 | 80 | 1010.6 |
| 20260504171344 | 64 | 116 | 4.0 | 7.0 | 0.00 | 0.02 | 0.02 | 79 | 1010.6 |
| 20260504170836 | 64 | 183 | 3.0 | 7.0 | 0.00 | 0.02 | 0.02 | 78 | 1010.6 |
| 20260504170331 | 64 | 165 | 3.0 | 6.0 | 0.00 | 0.02 | 0.02 | 78 | 1010.6 |
| 20260504160346 | 66 | 191 | 2.0 | 7.0 | 0.00 | 0.03 | 0.02 | 71 | 1010.8 |
| 20260504150814 | 67 | 197 | 2.0 | 5.0 | 0.00 | 0.04 | 0.02 | 71 | 1011.0 |
| 20260504150304 | 67 | 150 | 0.0 | 4.0 | 0.00 | 0.04 | 0.02 | 71 | 1010.9 |
| 20260504141256 | 68 | 168 | 1.0 | 4.0 | 0.00 | 0.06 | 0.02 | 70 | 1011.1 |
| 20260504140849 | 68 | 199 | 2.0 | 5.0 | 0.00 | 0.06 | 0.02 | 69 | 1011.2 |
| 20260504140331 | 67 | 191 | 2.0 | 5.0 | 0.00 | 0.06 | 0.02 | 69 | 1011.2 |
| 20260504130810 | 67 | 116 | 2.0 | 5.0 | 0.00 | 0.08 | 0.02 | 71 | 1011.6 |
| 20260504130305 | 67 | 205 | 3.0 | 7.0 | 0.00 | 0.09 | 0.02 | 70 | 1011.7 |
| 20260504130301 | 67 | 200 | 3.0 | 7.0 | 0.00 | 0.09 | 0.02 | 71 | 1011.7 |
| 20260504120216 | 66 | 208 | 3.0 | 7.0 | 0.00 | 0.13 | 0.02 | 74 | 1011.8 |
| 20260504110240 | 64 | 194 | 3.0 | 7.0 | 0.00 | 0.17 | 0.02 | 79 | 1011.9 |
| 20260504100304 | 63 | 218 | 1.0 | 4.0 | 0.00 | 0.18 | 0.02 | 83 | 1012.3 |
| 20260504100155 | 62 | 225 | 1.0 | 5.0 | 0.00 | 0.18 | 0.02 | 84 | 1012.4 |
| 20260504090110 | 61 | 208 | 1.0 | 4.0 | 0.00 | 0.18 | 0.02 | 89 | 1012.0 |
| 20260504081156 | 58 | 180 | 1.0 | 4.0 | 0.01 | 0.18 | 0.02 | 93 | 1012.0 |
| 20260504080746 | 58 | 214 | 1.0 | 4.0 | 0.01 | 0.18 | 0.02 | 94 | 1012.0 |
| 20260504080238 | 58 | 246 | 1.0 | 4.0 | 0.01 | 0.18 | 0.02 | 94 | 1012.0 |
| 20260504080128 | 58 | 195 | 1.0 | 4.0 | 0.01 | 0.18 | 0.02 | 94 | 1012.0 |
| 20260504070208 | 57 | 172 | 2.0 | 5.0 | 0.00 | 0.17 | 0.01 | 96 | 1011.6 |
| 20260504060229 | 54 | 133 | 0.0 | 0.0 | 0.00 | 0.17 | 0.01 | 96 | 1011.1 |
| 20260504050714 | 53 | 141 | 0.0 | 2.0 | 0.00 | 0.17 | 0.01 | 96 | 1010.7 |
| 20260504050208 | 53 | 132 | 0.0 | 2.0 | 0.00 | 0.17 | 0.01 | 96 | 1010.6 |
| 20260504045700 | 53 | 159 | 0.0 | 2.0 | 0.00 | 0.17 | 0.01 | 96 | 1010.6 |
| 20260504045452 | 53 | 159 | 0.0 | 2.0 | 0.00 | 0.17 | 0.01 | 96 | 1010.6 |
| 20260504044646 | 52 | 181 | 0.0 | 0.0 | 0.00 | 0.17 | 0.01 | 96 | 1010.6 |
| 20260504044140 | 52 | 181 | 0.0 | 0.0 | 0.00 | 0.17 | 0.01 | 96 | 1010.6 |
| 20260504044029 | 52 | 181 | 0.0 | 0.0 | 0.00 | 0.17 | 0.01 | 96 | 1010.6 |
| 20260504043126 | 52 | 181 | 0.0 | 0.0 | 0.00 | 0.17 | 0.01 | 96 | 1010.6 |
| 20260504042619 | 52 | 181 | 0.0 | 2.0 | 0.00 | 0.17 | 0.01 | 96 | 1010.6 |
| 20260504042209 | 52 | 181 | 0.0 | 2.0 | 0.00 | 0.17 | 0.01 | 96 | 1010.6 |
| 20260504041956 | 52 | 158 | 0.0 | 0.0 | 0.00 | 0.17 | 0.01 | 96 | 1010.6 |
| 20260504041756 | 52 | 141 | 0.0 | 0.0 | 0.00 | 0.17 | 0.01 | 96 | 1010.6 |
| 20260504040648 | 52 | 158 | 0.0 | 0.0 | 0.00 | 0.17 | 0.01 | 96 | 1010.6 |
| 20260504040142 | 52 | 158 | 0.0 | 0.0 | 0.00 | 0.17 | 0.01 | 96 | 1010.6 |
| 20260504035638 | 52 | 158 | 0.0 | 0.0 | 0.00 | 0.17 | 0.01 | 96 | 1010.6 |
| 20260504035132 | 52 | 140 | 0.0 | 0.0 | 0.00 | 0.17 | 0.01 | 96 | 1010.7 |
| 20260504034626 | 52 | 168 | 0.0 | 0.0 | 0.00 | 0.17 | 0.01 | 96 | 1010.7 |
| 20260504034117 | 52 | 168 | 0.0 | 0.0 | 0.00 | 0.17 | 0.01 | 96 | 1010.7 |
| 20260504033612 | 52 | 168 | 0.0 | 0.0 | 0.00 | 0.17 | 0.01 | 96 | 1010.7 |
| 20260504033104 | 52 | 168 | 0.0 | 0.0 | 0.00 | 0.17 | 0.01 | 96 | 1010.7 |
| 20260504032656 | 52 | 168 | 0.0 | 0.0 | 0.00 | 0.17 | 0.01 | 96 | 1010.7 |
| 20260504032150 | 52 | 168 | 0.0 | 0.0 | 0.00 | 0.17 | 0.01 | 96 | 1010.8 |
| 20260504031647 | 52 | 168 | 0.0 | 0.0 | 0.00 | 0.17 | 0.01 | 96 | 1010.9 |
| 20260504031140 | 52 | 168 | 0.0 | 0.0 | 0.00 | 0.17 | 0.01 | 96 | 1010.8 |
| 20260504030630 | 52 | 168 | 0.0 | 0.0 | 0.00 | 0.17 | 0.01 | 96 | 1010.9 |
| 20260504030124 | 52 | 168 | 0.0 | 0.0 | 0.00 | 0.17 | 0.01 | 95 | 1010.8 |
| 20260504025614 | 52 | 168 | 0.0 | 0.0 | 0.00 | 0.17 | 0.01 | 95 | 1010.8 |
| 20260504025106 | 52 | 168 | 0.0 | 0.0 | 0.00 | 0.17 | 0.01 | 95 | 1010.8 |
| 20260504024558 | 52 | 168 | 0.0 | 0.0 | 0.00 | 0.17 | 0.01 | 95 | 1010.8 |
| 20260504024151 | 52 | 168 | 0.0 | 0.0 | 0.00 | 0.17 | 0.01 | 95 | 1010.8 |
| 20260504023642 | 52 | 168 | 0.0 | 0.0 | 0.00 | 0.17 | 0.01 | 95 | 1010.7 |
| 20260504023138 | 52 | 168 | 0.0 | 0.0 | 0.00 | 0.17 | 0.01 | 95 | 1010.6 |
| 20260504022630 | 52 | 168 | 0.0 | 0.0 | 0.00 | 0.17 | 0.01 | 95 | 1010.6 |
| 20260504022120 | 52 | 168 | 0.0 | 0.0 | 0.00 | 0.17 | 0.01 | 95 | 1010.5 |
| 20260504021616 | 52 | 168 | 0.0 | 0.0 | 0.00 | 0.17 | 0.01 | 95 | 1010.5 |
| 20260504021106 | 52 | 168 | 0.0 | 0.0 | 0.00 | 0.17 | 0.01 | 95 | 1010.6 |
| 20260504020601 | 52 | 168 | 0.0 | 0.0 | 0.00 | 0.17 | 0.01 | 95 | 1010.7 |
| 20260504020110 | 52 | 168 | 0.0 | 0.0 | 0.00 | 0.17 | 0.01 | 95 | 1010.7 |
| 20260504015950 | 53 | 168 | 0.0 | 0.0 | 0.00 | 0.17 | 0.01 | 95 | 1010.7 |
| 20260504015139 | 53 | 168 | 0.0 | 0.0 | 0.00 | 0.17 | 0.01 | 95 | 1010.8 |
| 20260504014629 | 53 | 168 | 0.0 | 0.0 | 0.00 | 0.17 | 0.01 | 95 | 1010.7 |
| 20260504014124 | 53 | 168 | 0.0 | 0.0 | 0.00 | 0.17 | 0.01 | 95 | 1010.7 |
| 20260504013615 | 53 | 168 | 0.0 | 0.0 | 0.00 | 0.17 | 0.01 | 95 | 1010.6 |
| 20260504013108 | 53 | 168 | 0.0 | 0.0 | 0.00 | 0.17 | 0.01 | 95 | 1010.6 |
| 20260504012602 | 52 | 168 | 0.0 | 0.0 | 0.00 | 0.17 | 0.01 | 95 | 1010.6 |
| 20260504012054 | 52 | 168 | 0.0 | 0.0 | 0.00 | 0.17 | 0.01 | 95 | 1010.6 |
| 20260504011548 | 53 | 168 | 0.0 | 0.0 | 0.00 | 0.17 | 0.01 | 95 | 1010.6 |